Regional Weather Roundup
Issued by NWS Charleston, SC

Current Version | Previous Version | Graphics & Text | Print | Product List | Glossary On
Versions: 1 2 3 4 5 6 7 8 9 10 11 12 13 14 15 16 17 18 19 20 21 22 23 24 25 26 27 28 29 30 31 32 33 34 35 36 37 38 39 40 41 42 43 44 45 46 47 48 49 50
417
ASUS42 KCHS 300228
RWRCHS

REGIONAL WEATHER ROUNDUP
NATIONAL WEATHER SERVICE CHARLESTON SC
1000 PM EDT SUN MAY 29 2016

NOTE: "FAIR" INDICATES FEW OR NO CLOUDS BELOW 12,000 FEET WITH NO
SIGNIFICANT WEATHER AND/OR OBSTRUCTIONS TO VISIBILITY.

NOT ALL STATIONS ARE QUALITY CONTROLLED. USE DATA WITH CAUTION...
ESPECIALLY DEWPOINT OBSERVATIONS.

SCZ027-030-031-034>040-042>050-300300-
...SOUTHEAST SOUTH CAROLINA...

CITY           SKY/WX    TMP DP  RH WIND       PRES   REMARKS
N CHARLESTON   CLOUDY    73  67  81 NE7       29.91R
WATERFRONT PRK   N/A     72  69  90 NE6       29.89R
MOUNT PLEASANT CLOUDY    72  70  94 CALM      29.92R
JOHNS ISLAND   CLOUDY    72  70  94 CALM      29.92R
PINOPOLIS        N/A     73  70  88 VRB3      29.84S
MONCKS CORNER  CLOUDY    68  64  88 E3        29.93R
SUMMERVILLE    CLOUDY    70  70 100 CALM      29.93R
BEAUFORT MCAS  CLOUDY    71  69  93 W12       29.94R
BEAUFORT ARPT  CLOUDY    70  68  94 W12       29.94R
HILTON HEAD IS CLOUDY    68  68 100 W7G13     29.96R
WALTERBORO     CLOUDY    72  72 100 NW6       29.94R
ALLENDALE      CLOUDY    70  68  94 NW6       29.96R

...SOUTHERN MIDLANDS AND PEE DEE...

CITY           SKY/WX    TMP DP  RH WIND       PRES   REMARKS
GEORGETOWN     CLOUDY    70  68  94 SE5       29.95S
KINGSTREE      CLOUDY    70  68  94 E5        29.95R
ORANGEBURG     MOCLDY    72  68  87 N10G17    29.96R
BARNWELL       CLOUDY    72  72 100 W3        29.98S
AIKEN          CLOUDY    70  63  78 NW8       30.03S
MANNING        CLOUDY    70  68  94 NE6       29.94R
COLUMBIA       CLOUDY    74  65  73 N7        29.97R
SUMTER         CLOUDY    71  69  92 N14       29.94R
FLORENCE       MOCLDY    74  68  81 NE8       29.97R
MYRTLE BEACH   CLOUDY    73  64  73 SE9       29.99
N MYRTLE BEACH CLOUDY    75  70  84 SE5       29.97R

$$

GAZ063-065-086>088-099>101-113>116-118-119-134>141-150-300300-
...SOUTHEAST GEORGIA...

CITY           SKY/WX    TMP DP  RH WIND       PRES   REMARKS
SAVANNAH ARPT  CLOUDY    70  63  78 W9        29.97S
HUNTER AAF     CLOUDY    69  68  94 W3        29.95R
FORT STEWART   CLOUDY    75  61  62 W7        29.97R
STATESBORO     CLOUDY    70  67  90 NW7       30.00R
SYLVANIA       CLOUDY    71  67  88 NW8       30.00R
CLAXTON        MOCLDY    71  66  84 W6        30.01R

...CSRA...CENTRAL AND FAR SOUTHEAST GEORGIA...

CITY           SKY/WX    TMP DP  RH WIND       PRES   REMARKS
THOMSON        PTCLDY    67  66  96 NW3       30.08R
AUGUSTA-BUSH   MOCLDY    73  63  70 NW9       29.99R
AUGUSTA-DANIEL CLOUDY    73  62  68 NW7       30.01R
SWAINSBORO     FAIR      72  63  73 NW5       30.03R
VIDALIA        PTCLDY    75  59  57 NW6       30.02S
EASTMAN        MOCLDY    72  72 100 CALM      30.06R
HAZLEHURST     FAIR      73  65  75 CALM      30.02R
ALMA           CLEAR     69  63  81 CALM      30.02R
WAYCROSS       CLEAR     72  65  78 CALM      30.03R
JESUP          FAIR      66  57  72 CALM      30.02R
BAXLEY         FAIR      72  64  78 CALM      30.02R
BRUNSWICK      MOCLDY    81  61  50 CALM      30.02R
SAINT SIMONS   PTCLDY    77  59  53 W5        30.01R

$$

SCZ027-028-034-036>038-045-046-048>050-GAZ119-141-300300-
...LAKE AND SUPPLEMENTAL COASTAL OBSERVATIONS...

STATION/POSITION TIME  TEMP    WIND        PRES    WAVE   SWELL
                       AIR SEA DIR/SP/G            HT/PER HT/PER/DIR
                 (UTC) (F)     (DEG/KT/KT) (MB)    (FT/S) (FT/S/D)
WINYAH BAY       0145   72     150/  7     1013.0S
LAKE MURRAY      0100   74      30/  4/  9 1014.6S
ACE BASIN NERRS  0100   70     290/  2     1013.0R
FORT PULASKI     0200   70 75                N/A
SAPELO ISLAND    0200   76     310/  4     1016.0R

$$

ANZ835-935-AMZ111-154-330-350-352-354-370-450-454-472-300300-
...C-MAN AND BUOY OBSERVATIONS...

STATION/POSITION TIME  TEMP    WIND        PRES    WAVE   SWELL
                       AIR SEA DIR/SP/G            HT/PER HT/PER/DIR
                 (UTC) (F)     (DEG/KT/KT) (MB)    (FT/S) (FT/S/D)
BUOY 41004       0150   73 78  180/ 14/ 17 1013.1R   6/ 8   3/ 8
BUOY 41008       0150   76 76  300/ 16/ 19 1015.3R   3/ 4   2/100/ 8
FOLLY BEACH CMAN 0200   71      40/  7/  8 1012.9R
CAPERS NEARSHORE 0208   72 76  110/ 10/ 14 1012.7R
FRIPP NEARSHORE  0208   71 75  290/ 19/ 23 1012.6R


STATION/POSITION TIME  TEMP    WIND        PRES    WAVE   SWELL
                       AIR SEA DIR/SP/G            HT/PER HT/PER/DIR
                 (UTC) (F)     (DEG/KT/KT) (MB)    (FT/S) (FT/S/D)
5E ST. MARYS GA  0201      79                N/A     2/ 8
FRYING PAN BUOY  0200   78 78  170/ 16/ 19 1015.1R
BUOY 41025       0150   77 82  170/ 17/ 25 1017.5R   5/ 6   2/150/13
CAPE LOOKOUT NC  0200   76     160/  9/  9 1016.8R
BUOY 41002       0150   75 76  120/ 16/ 19 1018.1F   5/ 7   3/230/ 7
BUOY 41010       0120   78 79   80/  6/  8 1017.1R
ST AUGUSTINE FL  0200   78 80  180/ 10/ 11 1017.6R


$$




USA.gov is the U.S. government's official web portal to all federal, state and local government web resources and services.